When you browse on this site, cookies collect data to enhance your experience and personalize the content and advertising you see.
Visit our Privacy Policy to learn more. By continuing to use the site, you agree to this use of cookies and data.
  • In Slovakia
  • List of Countries
  • For 7 days
  • Water Temperature
  • Satellite Maps
  • Weather Map
  • Weather Widgets
  • user-avatar
    Login

    Hourly Weather Satif

    Today, 14 December, Friday

    Time Temperature Precipitation Wind Pressure Humidity
    00:00 +4°C° 0 mm 6 mps 665 mmHg 68%
    01:00 +5°C° 0.2 mm 5 mps 665 mmHg 71%
    02:00 +3°C° 0.2 mm 5 mps 664 mmHg 74%
    03:00 +4°C° 0.2 mm 4 mps 664 mmHg 77%
    04:00 +3°C° 0.1 mm 4 mps 663 mmHg 78%
    05:00 +3°C° 0.1 mm 4 mps 663 mmHg 80%
    06:00 +2°C° 0 mm 3 mps 663 mmHg 82%
    07:00 +3°C° 0.3 mm 3 mps 663 mmHg 80%
    08:00 +3°C° 0.3 mm 3 mps 663 mmHg 78%
    09:00 +4°C° 0.3 mm 3 mps 663 mmHg 75%
    10:00 +5°C° 0 mm 3 mps 664 mmHg 70%
    11:00 +6°C° 0 mm 4 mps 664 mmHg 64%
    12:00 +7°C° 0 mm 4 mps 665 mmHg 59%
    13:00 +7°C° 0 mm 4 mps 665 mmHg 59%
    14:00 +7°C° 0 mm 4 mps 666 mmHg 60%
    15:00 +7°C° 0 mm 4 mps 666 mmHg 60%
    16:00 +7°C° 1.7 mm 5 mps 666 mmHg 68%
    17:00 +6°C° 1.7 mm 5 mps 667 mmHg 75%
    18:00 +6°C° 1.7 mm 5 mps 668 mmHg 82%
    19:00 +4°C° 2.8 mm 7 mps 669 mmHg 85%
    20:00 +4°C° 2.8 mm 8 mps 669 mmHg 87%
    21:00 +3°C° 2.8 mm 9 mps 670 mmHg 90%
    22:00 +3°C° 0.2 mm 9 mps 671 mmHg 88%
    23:00 +4°C° 0.2 mm 8 mps 671 mmHg 86%

    Tomorrow, 15 December, Saturday

    Time Temperature Precipitation Wind Pressure Humidity
    00:00 +4°C° 0.2 mm 8 mps 672 mmHg 84%
    01:00 +4°C° 0.1 mm 7 mps 672 mmHg 85%
    02:00 +4°C° 0.1 mm 6 mps 672 mmHg 86%
    03:00 +5°C° 0.1 mm 5 mps 673 mmHg 86%
    04:00 +5°C° 0.1 mm 5 mps 673 mmHg 87%
    05:00 +5°C° 0.1 mm 4 mps 673 mmHg 87%
    06:00 +5°C° 0.1 mm 4 mps 673 mmHg 88%
    07:00 +5°C° 0.1 mm 4 mps 674 mmHg 85%
    08:00 +5°C° 0.1 mm 4 mps 674 mmHg 82%
    09:00 +6°C° 0.1 mm 4 mps 675 mmHg 79%
    10:00 +6°C° 0.1 mm 4 mps 675 mmHg 77%
    11:00 +7°C° 0.1 mm 4 mps 675 mmHg 74%
    12:00 +8°C° 0.1 mm 3 mps 675 mmHg 71%
    13:00 +7°C° 0 mm 4 mps 675 mmHg 69%
    14:00 +7°C° 0 mm 4 mps 675 mmHg 67%
    15:00 +8°C° 0 mm 4 mps 675 mmHg 65%
    16:00 +8°C° 0 mm 3 mps 675 mmHg 69%
    17:00 +7°C° 0 mm 2 mps 675 mmHg 74%
    18:00 +6°C° 0 mm 2 mps 675 mmHg 78%
    19:00 +5°C° 0 mm 2 mps 675 mmHg 79%
    20:00 +5°C° 0 mm 2 mps 676 mmHg 80%
    21:00 +5°C° 0 mm 2 mps 676 mmHg 81%
    22:00 +4°C° 0 mm 2 mps 675 mmHg 80%
    23:00 +4°C° 0 mm 2 mps 675 mmHg 79%

    Day after tomorrow, 16 December, Sunday

    Time Temperature Precipitation Wind Pressure Humidity
    00:00 +5°C° 0 mm 1 mps 675 mmHg 78%
    01:00 +5°C° 0 mm 1 mps 675 mmHg 77%
    02:00 +5°C° 0 mm 1 mps 675 mmHg 75%
    03:00 +5°C° 0 mm 1 mps 675 mmHg 73%
    04:00 +5°C° 0 mm 1 mps 675 mmHg 73%
    05:00 +6°C° 0 mm 1 mps 675 mmHg 72%
    06:00 +6°C° 0 mm 1 mps 675 mmHg 71%
    07:00 +6°C° 0 mm 2 mps 675 mmHg 67%
    08:00 +8°C° 0 mm 2 mps 676 mmHg 62%
    09:00 +10°C° 0 mm 2 mps 677 mmHg 57%
    10:00 +12°C° 0 mm 2 mps 677 mmHg 55%
    11:00 +14°C° 0 mm 2 mps 677 mmHg 52%
    12:00 +15°C° 0 mm 2 mps 677 mmHg 49%
    13:00 +14°C° 0 mm 3 mps 677 mmHg 50%
    14:00 +14°C° 0 mm 3 mps 676 mmHg 51%
    15:00 +14°C° 0 mm 3 mps 676 mmHg 51%
    16:00 +14°C° 0 mm 2 mps 676 mmHg 55%
    17:00 +12°C° 0 mm 2 mps 676 mmHg 59%
    18:00 +10°C° 0 mm 2 mps 676 mmHg 63%
    19:00 +10°C° 0 mm 2 mps 676 mmHg 64%
    20:00 +9°C° 0 mm 3 mps 676 mmHg 65%
    21:00 +9°C° 0 mm 3 mps 676 mmHg 65%
    22:00 +9°C° 0 mm 3 mps 676 mmHg 66%
    23:00 +8°C° 0 mm 3 mps 676 mmHg 66%

    17 December, Monday

    Time Temperature Precipitation Wind Pressure Humidity
    00:00 +8°C° 0 mm 3 mps 676 mmHg 67%
    01:00 +8°C° 0 mm 3 mps 675 mmHg 67%
    02:00 +7°C° 0 mm 2 mps 675 mmHg 68%
    03:00 +7°C° 0 mm 2 mps 675 mmHg 69%
    04:00 +7°C° 0 mm 2 mps 675 mmHg 70%
    05:00 +6°C° 0 mm 2 mps 675 mmHg 72%
    06:00 +7°C° 0 mm 1 mps 675 mmHg 73%
    07:00 +8°C° 0 mm 1 mps 676 mmHg 69%
    08:00 +10°C° 0 mm 1 mps 677 mmHg 66%
    09:00 +10°C° 0 mm 2 mps 677 mmHg 62%
    10:00 +12°C° 0 mm 2 mps 677 mmHg 62%
    11:00 +12°C° 0 mm 2 mps 677 mmHg 62%
    12:00 +12°C° 0 mm 3 mps 677 mmHg 63%
    13:00 +12°C° 0 mm 3 mps 677 mmHg 63%
    14:00 +12°C° 0 mm 3 mps 677 mmHg 64%
    15:00 +12°C° 0 mm 4 mps 677 mmHg 64%
    16:00 +11°C° 0 mm 3 mps 677 mmHg 70%
    17:00 +9°C° 0 mm 3 mps 678 mmHg 76%
    18:00 +8°C° 0 mm 3 mps 678 mmHg 82%
    19:00 +8°C° 0 mm 2 mps 678 mmHg 85%
    20:00 +7°C° 0 mm 2 mps 678 mmHg 87%
    21:00 +6°C° 0 mm 2 mps 679 mmHg 89%
    22:00 +7°C° 0 mm 1 mps 679 mmHg 90%
    23:00 +6°C° 0 mm 1 mps 679 mmHg 91%

    18 December, Tuesday

    Time Temperature Precipitation Wind Pressure Humidity
    00:00 +6°C° 0 mm 1 mps 678 mmHg 92%
    01:00 +5°C° 0 mm 1 mps 678 mmHg 92%
    02:00 +5°C° 0 mm 1 mps 678 mmHg 92%
    03:00 +4°C° 0 mm 1 mps 677 mmHg 92%
    04:00 +4°C° 0 mm 1 mps 677 mmHg 90%
    05:00 +4°C° 0 mm 1 mps 678 mmHg 89%
    06:00 +4°C° 0 mm 1 mps 678 mmHg 87%
    07:00 +5°C° 0 mm 1 mps 678 mmHg 77%
    08:00 +7°C° 0 mm 1 mps 679 mmHg 68%
    09:00 +8°C° 0 mm 1 mps 679 mmHg 58%
    10:00 +9°C° 0 mm 2 mps 679 mmHg 49%
    11:00 +10°C° 0 mm 2 mps 679 mmHg 41%
    12:00 +13°C° 0 mm 2 mps 679 mmHg 32%
    13:00 +13°C° 0 mm 2 mps 679 mmHg 32%
    14:00 +12°C° 0 mm 3 mps 678 mmHg 32%
    15:00 +13°C° 0 mm 3 mps 678 mmHg 32%
    16:00 +11°C° 0 mm 3 mps 678 mmHg 37%
    17:00 +9°C° 0 mm 3 mps 678 mmHg 41%
    18:00 +8°C° 0 mm 3 mps 677 mmHg 45%
    19:00 +7°C° 0 mm 3 mps 677 mmHg 48%
    20:00 +7°C° 0 mm 3 mps 677 mmHg 50%
    21:00 +5°C° 0 mm 3 mps 677 mmHg 52%
    22:00 +5°C° 0 mm 3 mps 677 mmHg 56%
    23:00 +5°C° 0 mm 3 mps 677 mmHg 59%

    19 December, Wednesday

    Time Temperature Precipitation Wind Pressure Humidity
    00:00 +5°C° 0 mm 3 mps 677 mmHg 63%
    01:00 +5°C° 0 mm 3 mps 677 mmHg 65%
    02:00 +4°C° 0 mm 3 mps 676 mmHg 67%
    03:00 +4°C° 0 mm 3 mps 676 mmHg 70%
    04:00 +4°C° 0 mm 3 mps 676 mmHg 70%
    05:00 +4°C° 0 mm 3 mps 676 mmHg 71%
    06:00 +4°C° 0 mm 3 mps 676 mmHg 71%
    07:00 +5°C° 0 mm 3 mps 677 mmHg 67%
    08:00 +8°C° 0 mm 3 mps 677 mmHg 62%
    09:00 +9°C° 0 mm 3 mps 678 mmHg 58%
    10:00 +10°C° 0 mm 3 mps 678 mmHg 53%
    11:00 +12°C° 0 mm 3 mps 678 mmHg 48%
    12:00 +13°C° 0 mm 3 mps 678 mmHg 43%
    13:00 +13°C° 0 mm 3 mps 677 mmHg 44%
    14:00 +13°C° 0 mm 3 mps 677 mmHg 45%
    15:00 +14°C° 0 mm 2 mps 677 mmHg 45%
    16:00 +13°C° 0 mm 2 mps 676 mmHg 51%
    17:00 +10°C° 0 mm 2 mps 676 mmHg 57%
    18:00 +8°C° 0 mm 2 mps 676 mmHg 63%
    19:00 +8°C° 0 mm 2 mps 676 mmHg 64%
    20:00 +7°C° 0 mm 2 mps 676 mmHg 65%
    21:00 +7°C° 0 mm 2 mps 676 mmHg 66%
    22:00 +7°C° 0 mm 2 mps 676 mmHg 65%
    23:00 +7°C° 0 mm 2 mps 676 mmHg 65%
    Show more